GW3407 Weather Reports


time (UTC)temp
F
wind
direction
speed
knots
gust
knots
rain 1hr
in
rain 24hr
in
rain mn
in
humidity
%
barometer
mb
20260505102057 62 191 1.7 3.5 0.00 0.00 0.00 71 1009.2
20260505101555 61 201 0.0 1.7 0.00 0.00 0.00 73 1009.5
20260505101051 61 185 1.7 2.6 0.00 0.00 0.00 72 1009.4
20260505100548 61 160 0.9 2.6 0.00 0.00 0.00 73 1009.3
20260505100045 62 297 2.6 2.6 0.00 0.00 0.00 71 1009.2
20260505095541 62 124 1.7 2.6 0.00 0.00 0.00 72 1009.4
20260505095037 62 96 0.0 2.6 0.00 0.00 0.00 71 1009.2
20260505094534 62 189 1.7 2.6 0.00 0.00 0.00 71 1009.2
20260505094030 62 123 1.7 2.6 0.00 0.00 0.00 71 1009.0
20260505093527 62 249 0.0 1.7 0.00 0.00 0.00 70 1009.0
20260505093024 63 250 1.7 2.6 0.00 0.00 0.00 69 1009.1
20260505092522 63 151 0.0 2.6 0.00 0.00 0.00 69 1008.8
20260505092020 64 57 4.3 4.3 0.00 0.00 0.00 68 1009.1
20260505091516 63 173 0.0 2.6 0.00 0.00 0.00 68 1008.8
20260505091015 64 109 0.0 2.6 0.00 0.00 0.00 68 1008.7
20260505090512 64 23 0.0 3.5 0.00 0.00 0.00 67 1008.5
20260505090010 64 248 0.0 5.2 0.00 0.00 0.00 66 1008.7
20260505085508 65 82 0.9 2.6 0.00 0.00 0.00 65 1008.4
20260505085006 66 204 1.7 8.7 0.00 0.00 0.00 64 1008.4
20260505084504 66 266 2.6 9.6 0.00 0.00 0.00 64 1008.5
20260505084001 65 247 1.7 5.2 0.00 0.00 0.00 65 1008.2
20260505083458 65 315 2.6 6.1 0.00 0.00 0.00 66 1008.5
20260505082954 65 236 0.0 2.6 0.00 0.00 0.00 65 1008.6
20260505082450 65 205 0.0 3.5 0.00 0.00 0.00 65 1008.6
20260505081947 66 90 2.6 3.5 0.00 0.00 0.00 65 1008.5
20260505081444 66 214 3.5 9.6 0.00 0.00 0.00 64 1008.4
20260505080941 66 290 0.0 4.3 0.00 0.00 0.00 64 1008.4
20260505080437 65 300 0.9 4.3 0.00 0.00 0.00 66 1008.5
20260505075932 66 258 2.6 5.2 0.00 0.00 0.00 64 1008.6
20260505075429 66 200 2.6 4.3 0.00 0.00 0.00 64 1008.2
20260505074927 66 227 3.5 5.2 0.00 0.00 0.00 65 1008.5
20260505074424 66 273 6.1 8.7 0.00 0.00 0.00 64 1008.4
20260505073921 66 330 2.6 5.2 0.00 0.00 0.00 64 1008.4
20260505073419 65 233 4.3 6.1 0.00 0.00 0.00 66 1008.1
20260505072916 66 240 1.7 11.3 0.00 0.00 0.00 63 1008.1
20260505072412 65 315 0.0 5.2 0.00 0.00 0.00 65 1008.1
20260505071908 66 281 4.3 7.8 0.00 0.00 0.00 64 1008.1
20260505071404 66 90 0.0 5.2 0.00 0.00 0.00 65 1008.2
20260505070903 66 198 1.7 4.3 0.00 0.00 0.00 64 1007.9
20260505070358 65 188 1.7 3.5 0.00 0.00 0.00 66 1008.1
20260505065854 65 251 2.6 4.3 0.00 0.00 0.00 65 1008.1
20260505065351 66 270 0.9 3.5 0.00 0.00 0.00 64 1008.4
20260505064848 66 270 0.9 4.3 0.00 0.00 0.00 64 1008.4
20260505064345 66 292 1.7 4.3 0.00 0.00 0.00 63 1008.1
20260505063844 66 292 4.3 4.3 0.00 0.00 0.00 63 1008.4
20260505063339 66 203 0.9 4.3 0.00 0.00 0.00 63 1008.4
20260505062836 65 225 2.6 4.3 0.00 0.00 0.00 64 1008.4
20260505062333 65 339 0.0 2.6 0.00 0.00 0.00 66 1008.1
20260505061830 65 180 1.7 4.3 0.00 0.00 0.00 66 1008.5
20260505061328 65 236 1.7 4.3 0.00 0.00 0.00 65 1008.6
20260505060825 64 190 0.0 3.5 0.00 0.00 0.00 66 1008.4
20260505060322 64 180 0.0 3.5 0.00 0.00 0.00 65 1008.5
20260505055818 65 210 0.0 5.2 0.00 0.00 0.00 64 1008.2
20260505055314 64 265 1.7 2.6 0.00 0.00 0.00 66 1008.6
20260505054812 64 198 1.7 3.5 0.00 0.00 0.00 67 1008.6
20260505054309 64 90 0.0 2.6 0.00 0.00 0.00 66 1008.4
20260505053807 64 121 0.0 4.3 0.00 0.00 0.00 66 1008.7
20260505053304 64 103 1.7 3.5 0.00 0.00 0.00 67 1008.4
20260505052800 64 188 0.0 2.6 0.00 0.00 0.00 67 1008.4
20260505052257 65 187 0.0 3.5 0.00 0.00 0.00 65 1008.4
20260505051754 63 220 1.7 2.6 0.00 0.00 0.00 67 1008.2
20260505051252 63 173 0.9 2.6 0.00 0.00 0.00 68 1008.5
20260505050750 62 98 0.0 2.6 0.00 0.00 0.00 69 1008.6
20260505050248 62 206 0.9 1.7 0.00 0.00 0.00 71 1008.4
20260505041718 63 109 0.0 2.6 0.00 0.00 0.00 70 1007.8
20260505041215 63 90 0.9 1.7 0.00 0.00 0.00 70 1007.9
20260505040712 63 180 0.9 1.7 0.00 0.00 0.00 70 1007.7
20260505040209 63 90 0.0 1.7 0.00 0.00 0.00 72 1007.8
20260505035706 63 176 0.0 2.6 0.00 0.00 0.00 73 1007.8
20260505035202 64 265 0.0 2.6 0.00 0.00 0.00 69 1007.8
20260505034658 63 192 0.9 2.6 0.00 0.00 0.00 72 1007.5
20260505034150 64 270 0.0 1.7 0.00 0.00 0.00 72 1007.7
20260505033646 64 274 0.0 3.5 0.00 0.00 0.00 72 1007.6
20260505033145 64 303 1.7 2.6 0.00 0.00 0.00 71 1007.7
20260505032642 63 206 0.0 2.6 0.00 0.00 0.00 73 1007.6
20260505032139 63 206 0.0 3.5 0.00 0.00 0.00 72 1007.5
20260505031636 63 216 2.6 2.6 0.00 0.00 0.00 72 1007.6
20260505031132 64 270 1.7 4.3 0.00 0.00 0.00 72 1007.5
20260505030630 63 188 1.7 2.6 0.00 0.00 0.00 72 1007.6
20260505030125 62 145 0.0 2.6 0.00 0.00 0.00 76 1007.4
20260505025621 62 135 1.7 3.5 0.00 0.00 0.00 76 1007.4
20260505025120 61 187 0.0 2.6 0.00 0.00 0.00 80 1007.5
20260505024617 60 90 0.0 1.7 0.00 0.00 0.00 82 1007.4
20260505024114 60 215 0.0 1.7 0.00 0.00 0.00 84 1007.5
20260505023611 60 185 2.6 3.5 0.00 0.00 0.00 86 1007.4
20260505023109 59 180 0.9 2.6 0.00 0.00 0.00 86 1007.5
20260505022606 60 180 0.0 2.6 0.00 0.00 0.00 86 1007.6
20260505022103 60 206 0.0 2.6 0.00 0.00 0.00 85 1007.5
20260505021600 60 270 0.0 2.6 0.00 0.00 0.00 85 1007.3
20260505021057 60 127 2.6 2.6 0.00 0.00 0.00 84 1007.6
20260505020556 60 198 0.0 2.6 0.00 0.00 0.00 84 1007.5
20260505020054 60 195 0.0 2.6 0.00 0.00 0.00 85 1007.4
20260505015551 60 264 0.0 2.6 0.00 0.00 0.00 86 1007.5
20260505015047 60 144 0.0 1.7 0.00 0.00 0.00 87 1007.3
20260505014544 60 289 0.0 1.7 0.00 0.00 0.00 87 1007.3
20260505014041 60 138 2.6 2.6 0.00 0.00 0.00 87 1007.4
20260505013538 60 180 0.9 1.7 0.00 0.00 0.00 88 1007.2
20260505013036 60 270 0.0 2.6 0.00 0.00 0.00 88 1007.3
20260505012534 60 240 0.9 2.6 0.00 0.00 0.00 86 1007.3
20260505012030 60 180 0.0 2.6 0.00 0.00 0.00 86 1007.3
20260505011526 60 195 0.0 2.6 0.00 0.00 0.00 85 1007.1
20260505011023 61 278 0.0 2.6 0.00 0.00 0.00 85 1007.3
20260505010518 61 157 0.9 2.6 0.00 0.00 0.00 85 1007.2
20260505010016 61 259 0.0 2.6 0.00 0.00 0.00 83 1007.2
20260505005512 62 270 0.0 1.7 0.00 0.00 0.00 83 1007.2
20260505005010 62 209 0.0 1.7 0.00 0.00 0.00 83 1007.3
20260505004506 62 114 0.9 2.6 0.00 0.00 0.00 82 1007.2
20260505004003 63 171 1.7 2.6 0.00 0.00 0.00 80 1007.2
20260505003500 64 203 0.9 1.7 0.00 0.00 0.00 79 1007.4
20260505002956 64 180 1.7 1.7 0.00 0.00 0.00 78 1007.0
20260505002452 65 212 0.0 2.6 0.00 0.00 0.00 77 1007.1
20260505001951 65 231 0.0 1.7 0.00 0.00 0.00 75 1007.2
20260505001448 66 139 1.7 2.6 0.00 0.00 0.00 75 1007.2
20260505000945 67 157 1.7 1.7 0.00 0.00 0.00 73 1007.2
20260505000443 68 166 0.0 1.7 0.00 0.00 0.00 71 1007.2
20260504235940 68 162 0.0 2.6 0.00 0.00 0.00 71 1007.4
20260504235437 68 180 0.9 1.7 0.00 0.00 0.00 70 1007.4
20260504234933 70 166 0.0 1.7 0.00 0.00 0.00 72 1007.3
20260504234431 71 240 0.0 1.7 0.00 0.00 0.00 71 1007.4
20260504233927 71 277 0.9 1.7 0.00 0.00 0.00 70 1007.4
20260504233423 72 191 0.0 2.6 0.00 0.00 0.00 61 1007.4
20260504232920 72 342 0.0 0.9 0.00 0.00 0.00 60 1007.3
20260504232417 73 166 0.0 1.7 0.00 0.00 0.00 60 1007.1
20260504231914 73 117 0.0 0.9 0.00 0.00 0.00 59 1007.4
20260504231410 73 209 0.0 1.7 0.00 0.00 0.00 60 1007.5
20260504230907 74 154 0.0 1.7 0.00 0.00 0.00 57 1007.2
20260504230404 75 176 1.7 1.7 0.00 0.00 0.00 57 1007.5
20260504225903 75 81 0.0 1.7 0.00 0.00 0.00 60 1007.7
20260504225359 73 180 0.0 0.9 0.00 0.00 0.00 59 1007.8
20260504224857 74 66 0.0 2.6 0.00 0.00 0.00 56 1007.8
20260504224353 74 297 0.0 2.6 0.00 0.00 0.00 57 1008.0
20260504223850 74 192 0.0 1.7 0.00 0.00 0.00 57 1007.9
20260504223345 74 225 0.0 7.0 0.00 0.00 0.00 53 1008.2
20260504222842 76 262 2.6 3.5 0.00 0.00 0.00 54 1008.0
20260504222339 76 74 0.0 1.7 0.00 0.00 0.00 56 1007.9
20260504221837 75 270 0.9 7.0 0.00 0.00 0.00 54 1008.1
20260504221334 76 286 0.9 2.6 0.00 0.00 0.00 52 1008.2
20260504220831 77 251 0.0 2.6 0.00 0.00 0.00 53 1008.4
20260504220327 77 187 0.9 4.3 0.00 0.00 0.00 53 1008.0
20260504215825 76 253 1.7 4.3 0.00 0.00 0.00 53 1008.2
20260504215321 76 254 3.5 5.2 0.00 0.00 0.00 52 1008.2
20260504214817 75 37 1.7 4.3 0.00 0.00 0.00 55 1008.5
20260504214314 75 260 1.7 5.2 0.00 0.00 0.00 55 1008.4
20260504213811 75 225 3.5 6.1 0.00 0.00 0.00 56 1008.5
20260504213307 76 82 2.6 2.6 0.00 0.00 0.00 55 1008.5
20260504212804 75 121 0.0 5.2 0.00 0.00 0.00 55 1008.6
20260504212300 75 90 0.9 5.2 0.00 0.00 0.00 52 1008.7
20260504211758 75 38 0.0 2.6 0.00 0.00 0.00 54 1008.6
20260504211254 74 255 0.0 5.2 0.00 0.00 0.00 55 1008.5
20260504210752 73 268 4.3 8.7 0.00 0.00 0.00 56 1008.5
20260504210249 72 205 3.5 3.5 0.00 0.00 0.00 58 1008.8
20260504205746 71 248 2.6 6.1 0.00 0.00 0.00 58 1008.5
20260504205243 72 239 3.5 7.0 0.00 0.00 0.00 56 1008.9
20260504204741 72 117 0.0 2.6 0.00 0.00 0.00 59 1008.8
20260504204239 72 105 0.0 3.5 0.00 0.00 0.00 57 1008.7
20260504203738 72 307 2.6 16.5 0.00 0.00 0.00 57 1008.5
20260504203235 71 252 3.5 13.9 0.00 0.00 0.00 58 1008.4
20260504202735 71 297 1.7 4.3 0.00 0.00 0.00 58 1008.0
20260504202233 72 315 1.7 6.1 0.00 0.00 0.00 60 1008.0
20260504201730 71 90 3.5 4.3 0.00 0.00 0.00 61 1008.1
20260504201227 69 282 2.6 5.2 0.00 0.00 0.00 61 1008.4
20260504200725 70 242 3.5 5.2 0.00 0.00 0.00 60 1008.9
20260504200220 70 294 3.5 8.7 0.00 0.00 0.00 59 1008.7
20260504195717 71 292 6.1 11.3 0.00 0.00 0.00 58 1008.7
20260504195213 72 3 2.6 6.1 0.00 0.00 0.00 58 1008.4
20260504194710 72 266 2.6 5.2 0.00 0.00 0.00 56 1008.2
20260504194206 72 345 0.0 11.3 0.00 0.00 0.00 59 1008.1
20260504193703 72 280 4.3 8.7 0.00 0.00 0.00 57 1008.5
20260504193200 71 217 2.6 5.2 0.00 0.00 0.00 55 1008.8
20260504192659 71 259 1.7 14.8 0.00 0.00 0.00 54 1009.1
20260504192156 73 265 1.7 8.7 0.00 0.00 0.00 52 1009.1
20260504191655 73 261 2.6 9.6 0.00 0.00 0.00 54 1008.9
20260504191150 74 251 0.0 8.7 0.00 0.00 0.00 56 1008.7
20260504190646 74 251 2.6 9.6 0.00 0.00 0.00 54 1008.9
20260504190143 74 290 3.5 4.3 0.00 0.00 0.00 54 1009.0
20260504185639 74 313 5.2 7.8 0.00 0.00 0.00 53 1009.0
20260504185136 74 21 0.0 4.3 0.00 0.00 0.00 60 1009.1
20260504184632 74 20 0.0 4.3 0.00 0.00 0.00 59 1009.3
20260504184127 73 254 3.5 9.6 0.00 0.00 0.00 54 1009.5
20260504183625 72 285 2.6 12.2 0.00 0.00 0.00 53 1009.2
20260504183122 73 192 1.7 17.4 0.00 0.00 0.00 54 1009.4
20260504182620 74 278 2.6 11.3 0.00 0.00 0.00 53 1009.4
20260504182117 73 272 4.3 5.2 0.00 0.00 0.00 52 1009.4
20260504181614 72 0 0.9 9.6 0.00 0.00 0.00 55 1009.3
20260504181112 74 262 5.2 11.3 0.00 0.00 0.00 56 1009.5
20260504180611 72 282 5.2 11.3 0.00 0.00 0.00 54 1009.5
20260504180109 73 257 2.6 4.3 0.00 0.00 0.00 56 1009.5
20260504175606 72 294 0.9 8.7 0.00 0.00 0.00 55 1009.5
20260504175103 70 188 0.0 7.0 0.00 0.00 0.00 58 1009.5
20260504174601 70 277 3.5 6.1 0.00 0.00 0.00 57 1009.4
20260504174057 69 270 2.6 7.0 0.00 0.00 0.00 57 1009.4
20260504173554 70 120 1.7 5.2 0.00 0.00 0.00 58 1009.3
20260504173052 71 349 1.7 7.0 0.00 0.00 0.00 60 1009.5
20260504172548 71 294 1.7 7.0 0.00 0.00 0.00 57 1009.7
20260504172044 70 270 4.3 6.1 0.00 0.00 0.00 59 1009.8
20260504171541 69 262 7.8 7.8 0.00 0.00 0.00 60 1009.9
20260504171038 69 289 1.7 12.2 0.00 0.00 0.00 61 1009.9
20260504170534 70 303 2.6 8.7 0.00 0.00 0.00 60 1010.0
20260504150918 62 246 0.0 7.0 0.00 0.00 0.00 67 1011.5
20260504150415 62 261 0.0 6.1 0.00 0.00 0.00 67 1011.8
20260504140841 61 225 0.0 6.1 0.00 0.00 0.00 67 1011.9
20260504140337 60 246 0.9 11.3 0.00 0.00 0.00 65 1011.9
20260504130806 59 285 2.6 5.2 0.00 0.00 0.00 63 1011.7
20260504130302 58 225 1.7 15.6 0.00 0.00 0.00 62 1011.7
20260504120226 56 256 2.6 7.8 0.00 0.00 0.00 63 1011.6
20260504110653 49 26 0.0 2.6 0.00 0.00 0.00 76 1011.4
20260504110149 48 237 0.0 1.7 0.00 0.00 0.00 76 1011.5